Location: ????????
(56.0167°N, 38.0333°E)
Time: 14:23:10
(UTC+00:00)

Cosmos 2297 Rocket - Pass Details

Date: 19 May 2025
Orbit: 837 x 843 km, 71.0° (Epoch: 19 June)

Event Time Altitude Azimuth Distance (km) Brightness Sun altitude
Exits shadow 22:44:27 - 161° (SSE) 2,548 4.2 -12.1°
Reaches altitude 10° 22:44:45 10° 159° (SSE) 2,458 4.2 -12.1°
Maximum altitude 22:49:20 26° 105° (ESE) 1,594 3.7 -11.9°
Drops below altitude 10° 22:53:57 10° 50° (NE) 2,474 5.7 -11.7°
Sets 22:56:45 0° 39° (NE) 3,414 7.0 -11.5°
